sat.trackr.live / text

‹ back to catalog

STARLINK-34053

NORAD 63837 · 2025-093B

PAYLOAD ACTIVE UNKNOWN

§ Identity

Operator
Country
US
Launch date
2025-05-07
Launch site
AFETR
Launch vehicle
Mass (kg)
RCS (m²)

Purposes: comms

External: N2YO · Heavens-Above · Gunter

§ Orbital elements

Epoch: 2026-05-25T00:17:39.475680Z

Period
94.27 min
Inclination
43.0026°
Eccentricity
0.0001471
Mean motion
15.27583788 rev/d
Perigee alt
482.0 km
Apogee alt
484.0 km
Semi-major
6,861.2 km
B*
3.6974e-4
RAAN
6.9697°
Arg perigee
263.6577°
Mean anomaly
96.4107°
Rev number
5,958

§ Raw data

STARLINK-340531 63837U 25093B   26145.01226245  .00009927  00000+0  36974-3 0  99942 63837  43.0026   6.9697 0001471 263.6577  96.4107 15.27583788 59588

JSON: /api/v1/satellites/63837 · /tle

For live sub-satellite position, see the globe view (requires WebGL).

§ Visibility from observer

Set your observer location to see the next 7 days of passes ≥ 10°. The values pass through the URL so the page stays shareable.

No JS? Fill the form by hand. The geolocation button needs JavaScript.